map of BJV home
Great Circle Mapper logo
BJV - Airport
Location
City:  Bodrum, Turkey
Name:Milas
ICAO / IATA:LTFE / BJV

Details
Type:Airport (Aerodrome, Airfield)
Use:Public/Civil, International (customs port of entry)
Latitude:3715'02"N (37.250611)
Longitude:2739'52"E (27.664311)
Datum:WGS 1984
Elevation:21 ft (6 m)
Variation:4.57E (WMM2015 magnetic declination)
0.10 annual change
Runways:1
Longest:9842 × 148 ft (3000 × 45 m), paved

Time
Time Zone:UTC+2 (DST+3)
Local Time:

Weather
METAR:LTFE 040750Z 03013KT 9999 FEW035 15/07 Q1023 BECMG VRB02KT
TAF:LTFE 040440Z 0406/0506 VRB02KT 4000 BR NSC
BECMG 0406/0408 9999 NSW FEW035 PROB30
TEMPO 0409/0411 04012KT
BECMG 0411/0413 34014KT
BECMG 0416/0418 VRB02KT CAVOK PROB30 0503/0506 2000 BCFG

Related Locations
Nearby:
Farthest:NTAV: 11469 mi / 18458 km
Raivavae, Tubuai Islands, Austral Islands, PF

Find:

   beyond  
but within

Other Information
Maps:
NOTAMs:
Links:
Sources:

  
flag of Turkey   

Sectional Chart

Flight Planning
at skyvector.com

Satellite Image

Google Maps Satellite View

 

Copyright © 2004-2015 Karl L. Swartz. All rights reserved.
The Great Circle Mapper name and logo are trademarks of the Great Circle Mapper.
All other trademarks mentioned herein belong to their respective owners.
Please see credits for attibutions and further copyright information.

  Follow gcmap on Facebook Follow gcmap on Twitter Follow gcmap on Google+

hCard Microformat

Geo Microformat